Location: ?
(35.3436°N, 139.3168°E)
Time: 21:18:11
(UTC+00:00)

ALOS - Pass Details

Date: 29 October 2020
Orbit: 683 x 685 km, 97.9° (Epoch: 24 November)

Event Time Altitude Azimuth Distance (km) Brightness Sun altitude
Rises 20:33:25 0° 349° (N) 3,052 5.4 -6.5°
Reaches altitude 10° 20:36:41 10° 325° (NW) 2,132 4.4 -5.9°
Maximum altitude 20:39:00 14° 294° (WNW) 1,880 3.9 -5.4°
Drops below altitude 10° 20:41:20 10° 264° (W) 2,126 4.2 -5.0°
Sets 20:44:36 0° 239° (WSW) 3,037 5.2 -4.3°
